Lid_Strength_Index
8 11 13 11 10 10 12 12 13 12 10 11 11 11 10 9 9 10 9 9 9 8 7 6 6 6 5 3 3 2 2 3 3 2 3 4 4 4 3 2 1 1 1 1
10 12 9 8 9 10 11 13 13 11 10 12 12 12 10 10 9 9 9 9 9 8 8 7 7 7 5 4 3 3 3 3 3 2 3 4 5 5 4 4 3 2 2 1
11 10 8 9 10 11 12 13 13 13 11 12 13 14 12 10 9 9 9 8 8 8 8 8 7 7 7 6 4 4 3 3 3 3 3 4 4 5 5 4 3 3 3 3
10 9 10 10 11 10 13 11 11 11 13 16 13 18 14 11 11 10 9 9 9 8 8 7 7 7 6 6 5 4 5 5 4 3 3 4 4 5 5 5 4 3 4 4
11 11 11 11 10 10 12 10 11 12 14 14 15 17 15 13 13 11 10 9 9 8 8 8 7 7 7 6 6 6 5 5 4 4 4 4 5 6 7 6 6 6 6 5
10 9 9 10 9 9 9 10 11 12 13 18 14 15 17 14 13 12 11 10 8 7 8 7 7 6 7 6 6 6 6 5 5 5 4 5 5 7 7 7 7 7 7 7
11 11 10 9 11 10 10 12 17 18 19 19 15 16 15 12 11 12 11 10 10 7 8 8 8 8 7 7 7 6 6 7 6 6 5 5 6 6 7 6 6 9 9 9
14 15 11 9 10 12 12 12 16 20 20 18 16 18 15 11 11 10 10 10 9 10 9 8 8 8 8 8 7 7 7 7 7 6 6 6 5 6 5 6 6 7 8 8
14 13 11 10 10 10 12 14 11 15 19 19 16 14 12 11 11 11 10 10 10 9 8 8 8 8 8 8 8 8 7 7 7 7 6 6 6 6 6 6 6 7 8 8
12 15 12 12 11 11 12 11 15 15 21 22 18 17 15 13 11 10 11 10 9 8 8 8 8 7 8 8 8 8 7 8 7 7 7 6 6 6 6 6 7 7 8 9
11 12 15 13 13 14 14 15 14 14 16 19 20 17 12 12 11 10 10 9 9 8 8 8 8 8 8 8 8 8 8 8 8 7 7 7 7 7 6 6 7 8 9 10
10 12 16 14 12 11 12 13 13 17 18 17 18 16 11 11 11 11 10 9 8 8 8 8 8 8 9 9 8 8 8 8 8 8 7 8 7 7 7 7 8 9 10 13
10 13 18 16 13 12 14 13 12 12 15 16 19 16 11 11 10 10 10 10 9 8 8 8 8 9 9 9 9 8 8 8 8 8 8 8 8 8 8 9 9 11 12 14
8 12 15 17 15 12 15 12 11 12 15 15 15 14 11 10 10 9 9 9 9 9 8 9 9 9 9 9 9 9 9 8 8 8 9 9 9 8 9 9 10 12 13 14
9 14 13 12 12 12 13 13 13 14 13 15 13 13 11 9 9 9 9 8 8 8 8 8 9 8 8 8 9 9 9 9 9 9 9 8 9 9 9 11 12 13 14 14
9 14 13 15 12 12 14 13 13 12 12 12 12 12 8 7 7 7 7 8 8 8 7 8 7 8 8 8 8 8 9 9 9 9 9 9 11 12 12 13 13 14 15 15
11 13 14 18 14 14 16 13 13 12 11 11 14 10 8 8 7 7 7 7 6 6 6 7 7 7 7 7 7 8 9 10 11 11 13 13 13 14 13 13 14 15 16 17
12 12 13 17 16 20 13 11 10 10 10 9 9 9 8 7 6 6 6 6 6 6 6 6 7 8 8 8 8 9 11 11 12 13 14 15 14 14 15 15 15 16 16 17
8 11 17 17 18 15 13 12 12 14 13 9 10 9 9 9 9 8 8 7 7 7 7 8 8 9 9 9 10 12 13 13 13 13 13 15 14 15 15 16 16 17 17 17
9 9 13 19 21 24 14 11 9 8 14 10 9 10 10 10 13 10 8 8 8 7 8 10 10 10 10 12 13 14 14 14 14 13 13 13 14 15 15 15 16 17 18 17
13 15 15 15 16 14 11 10 9 15 14 11 10 10 10 11 10 8 7 8 8 9 9 10 11 12 12 13 14 14 14 14 14 15 16 16 15 16 16 17 18 17 17 16
16 17 17 16 16 18 9 10 14 10 8 9 9 8 8 8 8 8 8 9 9 9 10 12 13 13 13 15 15 15 15 15 16 16 16 17 18 17 17 18 19 15 16 16
16 14 18 14 15 9 8 10 8 7 9 9 9 8 8 9 9 7 7 7 8 8 10 12 15 15 15 16 17 17 17 17 17 18 18 18 17 18 18 18 18 17 16 17
13 10 14 13 12 11 9 8 8 7 8 6 6 8 9 9 9 9 8 9 9 10 11 14 14 15 16 16 16 18 17 17 19 19 19 19 19 18 19 17 17 17 19 18
13 12 13 13 11 10 9 8 7 7 7 7 8 7 8 8 8 9 9 9 10 11 15 15 15 15 17 17 17 17 17 17 18 17 17 19 19 19 18 18 17 17 17 16
11 12 13 14 11 10 9 9 8 8 8 8 8 8 7 8 9 10 10 11 12 12 14 14 15 17 18 18 19 18 16 15 15 15 15 15 15 15 16 16 15 12 12 12